Location: Unspecified
(0.0000°N, 0.0000°E)
Time: 08:40:30
(UTC+02:00)

NOAA 12 - Visible Passes

Search period start: 25 April 2017 00:00
Search period end: 05 May 2017 00:00
Orbit: 795 x 816 km, 98.6° (Epoch: 23 April)

Date Brightness Start Highest point End Pass type
(mag) Time Alt. Az. Time Alt. Az. Time Alt. Az.
25 Apr 4.6 21:17:21 10° S 21:22:34 60° WSW 21:27:43 10° NNW visible
26 Apr 4.0 20:52:24 10° SSE 20:57:39 68° ENE 21:02:50 10° N visible
27 Apr 4.8 20:28:01 10° SE 20:32:43 33° ENE 20:37:24 10° NNE visible
27 Apr 6.8 22:09:18 10° SW 22:12:14 15° WSW 22:15:09 10° WNW visible
28 Apr 5.8 21:42:47 10° SSW 21:47:20 30° WSW 21:51:52 10° NW visible
29 Apr 4.6 21:17:15 10° S 21:22:26 60° WSW 21:27:36 10° NNW visible
30 Apr 4.0 20:52:17 10° SSE 20:57:31 68° ENE 21:02:42 10° N visible
01 May 4.8 20:27:54 10° SE 20:32:36 33° ENE 20:37:16 10° NNE visible
01 May 6.8 22:09:11 10° SW 22:12:06 15° WSW 22:15:00 10° WNW visible
02 May 5.8 21:42:40 10° SSW 21:47:13 30° WSW 21:51:44 10° NW visible
03 May 4.6 21:17:08 10° S 21:22:19 60° WSW 21:27:27 10° NNW visible
04 May 4.0 20:52:10 10° SSE 20:57:24 68° ENE 21:02:35 10° N visible
